BAW1858 LWSK-LTFJ

Flight info

Callsign BAW1858
Flight time 1h 7m
Altitude 39000
Route RUGA2C RUGAS DCT DIGTI UT162 DRAMO DRAM1U
Aircraft A320/M-SDE3FGHIKRWXY/S

Departure

Time 2026-04-29 04:41
Airport Skopje International Airport (LWSK)

Arrival

Time 2026-04-29 05:48
Airport Istanbul Sabiha Gökçen International Airport (LTFJ)
Time Latitude Longitude Altitude Speed Heading
2026-04-29 03:35 41.96494 21.62378 786 ft 0 kts 255°
2026-04-29 04:25 41.96495 21.62382 785 ft 3 kts 255°
2026-04-29 04:25 41.96498 21.62406 785 ft 3 kts 283°
2026-04-29 04:25 41.96498 21.62409 785 ft 0 kts 287°
2026-04-29 04:35 41.96508 21.62392 785 ft 6 kts 316°
2026-04-29 04:35 41.96542 21.62338 786 ft 9 kts 289°
2026-04-29 04:36 41.96573 21.62265 786 ft 10 kts 329°
2026-04-29 04:36 41.96645 21.62239 786 ft 12 kts 346°
2026-04-29 04:36 41.96730 21.62211 787 ft 14 kts 346°
2026-04-29 04:36 41.96829 21.62176 787 ft 16 kts 343°
2026-04-29 04:37 41.96920 21.62089 788 ft 17 kts 310°
2026-04-29 04:37 41.97002 21.61975 788 ft 7 kts 292°
2026-04-29 04:37 41.97000 21.61971 788 ft 0 kts 256°
2026-04-29 04:38 41.96999 21.61967 788 ft 2 kts 256°
2026-04-29 04:38 41.96998 21.61924 788 ft 9 kts 270°
2026-04-29 04:38 41.97050 21.61837 790 ft 15 kts 333°
2026-04-29 04:39 41.97153 21.61784 791 ft 16 kts 322°
2026-04-29 04:39 41.97218 21.61754 791 ft 6 kts 76°
2026-04-29 04:39 41.97193 21.61782 791 ft 5 kts 153°
2026-04-29 04:39 41.97187 21.61785 791 ft 0 kts 158°
2026-04-29 04:40 41.97157 21.61797 791 ft 14 kts 165°
2026-04-29 04:40 41.96839 21.61907 789 ft 82 kts 166°
2026-04-29 04:40 41.96094 21.62164 784 ft 136 kts 165°
2026-04-29 04:41 41.95045 21.62503 947 ft 164 kts 167°
2026-04-29 04:41 41.93877 21.62889 1335 ft 182 kts 167°
2026-04-29 04:41 41.92605 21.63327 1767 ft 200 kts 166°
2026-04-29 04:41 41.91166 21.63837 2157 ft 225 kts 166°
2026-04-29 04:42 41.89567 21.64404 2648 ft 250 kts 166°
2026-04-29 04:42 41.87839 21.65014 3422 ft 261 kts 166°
2026-04-29 04:42 41.86063 21.65639 4388 ft 266 kts 166°
2026-04-29 04:42 41.84258 21.66272 5363 ft 270 kts 166°
2026-04-29 04:43 41.82430 21.66910 6318 ft 273 kts 166°
2026-04-29 04:43 41.80592 21.67661 7247 ft 278 kts 156°
2026-04-29 04:43 41.78968 21.69090 8144 ft 284 kts 137°
2026-04-29 04:43 41.77763 21.71160 9023 ft 288 kts 118°
2026-04-29 04:44 41.77108 21.73716 9886 ft 293 kts 99°
2026-04-29 04:44 41.76897 21.76446 10766 ft 296 kts 96°
2026-04-29 04:44 41.76701 21.79240 11386 ft 310 kts 96°
2026-04-29 04:44 41.76488 21.82233 11662 ft 334 kts 96°
2026-04-29 04:45 41.76255 21.85407 12174 ft 348 kts 96°
2026-04-29 04:45 41.76010 21.88674 12932 ft 354 kts 96°
2026-04-29 04:45 41.75764 21.91934 13723 ft 358 kts 96°
2026-04-29 04:45 41.75459 21.95276 14516 ft 363 kts 101°
2026-04-29 04:46 41.74756 21.98540 15273 ft 366 kts 112°
2026-04-29 04:46 41.73613 22.01598 16001 ft 370 kts 122°
2026-04-29 04:46 41.72143 22.04460 16727 ft 373 kts 125°
2026-04-29 04:46 41.70646 22.07327 17436 ft 377 kts 125°
2026-04-29 04:47 41.69157 22.10191 18115 ft 381 kts 125°
2026-04-29 04:47 41.67635 22.13129 18807 ft 385 kts 125°
2026-04-29 04:47 41.66103 22.16088 19522 ft 389 kts 125°
2026-04-29 04:47 41.64554 22.19080 20242 ft 393 kts 125°
2026-04-29 04:48 41.62986 22.22102 20958 ft 397 kts 125°
2026-04-29 04:48 41.61400 22.25149 21643 ft 402 kts 125°
2026-04-29 04:48 41.59791 22.28226 22301 ft 406 kts 125°
2026-04-29 04:48 41.58158 22.31342 22940 ft 410 kts 125°
2026-04-29 04:49 41.56515 22.34473 23561 ft 414 kts 125°
2026-04-29 04:49 41.54857 22.37631 24174 ft 418 kts 125°
2026-04-29 04:49 41.53182 22.40823 24773 ft 422 kts 125°
2026-04-29 04:49 41.51494 22.44045 25339 ft 425 kts 125°
2026-04-29 04:50 41.49807 22.47261 25889 ft 429 kts 125°
2026-04-29 04:50 41.48082 22.50540 26429 ft 433 kts 125°
2026-04-29 04:50 41.46338 22.53843 26952 ft 436 kts 125°
2026-04-29 04:50 41.44584 22.57164 27455 ft 440 kts 125°
2026-04-29 04:51 41.42815 22.60509 27948 ft 443 kts 125°
2026-04-29 04:51 41.41033 22.63880 28418 ft 446 kts 125°
2026-04-29 04:51 41.39237 22.67271 28871 ft 449 kts 126°
2026-04-29 04:51 41.37427 22.70684 29300 ft 452 kts 126°
2026-04-29 04:52 41.35668 22.74166 29712 ft 455 kts 121°
2026-04-29 04:52 41.34257 22.77895 30089 ft 458 kts 112°
2026-04-29 04:52 41.33238 22.81922 30465 ft 461 kts 104°
2026-04-29 04:52 41.32666 22.86145 30903 ft 462 kts 96°
2026-04-29 04:53 41.32466 22.90420 31415 ft 461 kts 93°
2026-04-29 04:53 41.32292 22.94678 31912 ft 460 kts 93°
2026-04-29 04:53 41.32110 22.98917 32397 ft 459 kts 94°
2026-04-29 04:53 41.31921 23.03156 32875 ft 458 kts 94°
2026-04-29 04:54 41.31728 23.07328 33342 ft 457 kts 94°
2026-04-29 04:54 41.31530 23.11540 33814 ft 456 kts 94°
2026-04-29 04:54 41.31332 23.15755 34283 ft 455 kts 94°
2026-04-29 04:54 41.31136 23.19954 34749 ft 454 kts 94°
2026-04-29 04:55 41.30943 23.24143 35217 ft 453 kts 94°
2026-04-29 04:55 41.30751 23.28318 35663 ft 452 kts 94°
2026-04-29 04:55 41.30559 23.32493 36093 ft 451 kts 94°
2026-04-29 04:55 41.30366 23.36658 36495 ft 451 kts 94°
2026-04-29 04:56 41.30170 23.40830 36868 ft 450 kts 94°
2026-04-29 04:56 41.29970 23.44991 37218 ft 450 kts 94°
2026-04-29 04:56 41.29769 23.49109 37547 ft 450 kts 94°
2026-04-29 04:56 41.29564 23.53267 37866 ft 450 kts 94°
2026-04-29 04:57 41.29358 23.57424 38181 ft 450 kts 94°
2026-04-29 04:57 41.29152 23.61579 38480 ft 450 kts 94°
2026-04-29 04:57 41.28944 23.65741 38782 ft 450 kts 94°
2026-04-29 04:57 41.28735 23.69901 38967 ft 451 kts 94°
2026-04-29 04:58 41.28525 23.74078 39005 ft 453 kts 94°
2026-04-29 04:58 41.28099 23.82445 39012 ft 454 kts 94°
2026-04-29 04:59 41.27668 23.90769 39011 ft 454 kts 94°
2026-04-29 04:59 41.27230 23.99153 39000 ft 454 kts 94°
2026-04-29 05:00 41.26784 24.07491 39008 ft 454 kts 94°
2026-04-29 05:00 41.26332 24.15862 39017 ft 454 kts 94°
2026-04-29 05:01 41.25872 24.24248 39016 ft 454 kts 94°
2026-04-29 05:01 41.25411 24.32645 39018 ft 455 kts 94°
2026-04-29 05:02 41.24940 24.41030 39020 ft 455 kts 95°
2026-04-29 05:02 41.24461 24.49372 39027 ft 455 kts 95°
2026-04-29 05:03 41.24061 24.56357 39026 ft 455 kts 95°
2026-04-29 05:03 41.23570 24.64754 39027 ft 455 kts 95°
2026-04-29 05:04 41.23074 24.73139 39027 ft 455 kts 95°
2026-04-29 05:04 41.22575 24.81527 39027 ft 455 kts 95°
2026-04-29 05:05 41.22068 24.89919 39027 ft 455 kts 95°
2026-04-29 05:05 41.21557 24.98256 39027 ft 455 kts 95°
2026-04-29 05:06 41.21035 25.06642 39027 ft 455 kts 95°
2026-04-29 05:06 41.20513 25.15027 39022 ft 455 kts 95°
2026-04-29 05:07 41.19979 25.23422 39027 ft 455 kts 95°
2026-04-29 05:07 41.19440 25.31805 39027 ft 455 kts 95°
2026-04-29 05:08 41.18902 25.40144 39027 ft 455 kts 95°
2026-04-29 05:08 41.18356 25.48519 39027 ft 455 kts 95°
2026-04-29 05:09 41.17797 25.56908 39027 ft 455 kts 95°
2026-04-29 05:09 41.17232 25.65288 39027 ft 455 kts 95°
2026-04-29 05:10 41.16666 25.73624 39027 ft 455 kts 95°
2026-04-29 05:10 41.16092 25.82003 39027 ft 455 kts 95°
2026-04-29 05:11 41.15512 25.90386 39027 ft 455 kts 95°
2026-04-29 05:11 41.14930 25.98698 39027 ft 455 kts 95°
2026-04-29 05:12 41.14343 26.07068 39027 ft 455 kts 96°
2026-04-29 05:12 41.13746 26.15437 39027 ft 455 kts 96°
2026-04-29 05:13 41.13142 26.23795 39027 ft 455 kts 96°
2026-04-29 05:13 41.12310 26.32116 39021 ft 454 kts 105°
2026-04-29 05:14 41.10099 26.39894 39018 ft 454 kts 113°
2026-04-29 05:14 41.07675 26.47621 39026 ft 454 kts 113°
2026-04-29 05:15 41.05251 26.55356 39017 ft 454 kts 113°
2026-04-29 05:15 41.03635 26.63405 39026 ft 454 kts 95°
2026-04-29 05:16 41.03661 26.71779 39024 ft 454 kts 88°
2026-04-29 05:16 41.03832 26.80133 38286 ft 459 kts 89°
2026-04-29 05:16 41.03910 26.84379 37571 ft 462 kts 89°
2026-04-29 05:17 41.03981 26.88632 36866 ft 463 kts 89°
2026-04-29 05:17 41.04040 26.92899 36158 ft 463 kts 89°
2026-04-29 05:17 41.04065 26.97169 35430 ft 464 kts 90°
2026-04-29 05:17 41.04068 27.01451 34660 ft 465 kts 90°
2026-04-29 05:18 41.04063 27.05747 33852 ft 466 kts 90°
2026-04-29 05:18 41.04060 27.10048 33040 ft 467 kts 90°
2026-04-29 05:18 41.04061 27.14340 32230 ft 467 kts 90°
2026-04-29 05:18 41.04067 27.18658 31296 ft 469 kts 90°
2026-04-29 05:19 41.04075 27.22981 30540 ft 468 kts 90°
2026-04-29 05:19 41.04081 27.27258 30023 ft 461 kts 90°
2026-04-29 05:19 41.04084 27.31426 29466 ft 455 kts 90°
2026-04-29 05:19 41.04085 27.35596 28924 ft 450 kts 90°
2026-04-29 05:20 41.04087 27.39718 28385 ft 444 kts 90°
2026-04-29 05:20 41.04087 27.43793 27851 ft 439 kts 90°
2026-04-29 05:20 41.04112 27.47815 27323 ft 434 kts 87°
2026-04-29 05:20 41.04476 27.51772 26817 ft 429 kts 78°
2026-04-29 05:21 41.05215 27.55570 26352 ft 423 kts 74°
2026-04-29 05:21 41.06019 27.59309 25837 ft 419 kts 74°
2026-04-29 05:21 41.06804 27.62969 25363 ft 415 kts 74°
2026-04-29 05:21 41.07593 27.66639 24897 ft 412 kts 74°
2026-04-29 05:22 41.08376 27.70281 24427 ft 408 kts 74°
2026-04-29 05:22 41.09150 27.73886 23954 ft 406 kts 74°
2026-04-29 05:22 41.09917 27.77485 23499 ft 403 kts 74°
2026-04-29 05:22 41.10676 27.81055 23047 ft 401 kts 74°
2026-04-29 05:23 41.11374 27.84588 22586 ft 398 kts 79°
2026-04-29 05:23 41.11645 27.88227 22133 ft 395 kts 90°
2026-04-29 05:23 41.11405 27.91840 21677 ft 392 kts 101°
2026-04-29 05:23 41.10685 27.95314 21219 ft 389 kts 111°
2026-04-29 05:24 41.09707 27.98647 20762 ft 386 kts 111°
2026-04-29 05:24 41.08734 28.01956 20312 ft 383 kts 111°
2026-04-29 05:24 41.07767 28.05238 19864 ft 379 kts 111°
2026-04-29 05:24 41.06812 28.08485 19425 ft 376 kts 111°
2026-04-29 05:25 41.05872 28.11664 19248 ft 364 kts 113°
2026-04-29 05:25 41.04673 28.14502 19118 ft 351 kts 127°
2026-04-29 05:25 41.03026 28.16804 18949 ft 340 kts 141°
2026-04-29 05:25 41.01054 28.18480 18610 ft 335 kts 155°
2026-04-29 05:26 40.98861 28.19474 18233 ft 332 kts 168°
2026-04-29 05:26 40.96600 28.20058 17863 ft 330 kts 169°
2026-04-29 05:26 40.94356 28.20636 17491 ft 327 kts 169°
2026-04-29 05:26 40.92125 28.21215 17126 ft 325 kts 169°
2026-04-29 05:27 40.89912 28.21790 16765 ft 323 kts 169°
2026-04-29 05:27 40.85525 28.22937 16047 ft 319 kts 169°
2026-04-29 05:27 40.83357 28.23504 15691 ft 317 kts 169°
2026-04-29 05:28 40.81192 28.24066 15335 ft 315 kts 169°
2026-04-29 05:28 40.79046 28.24642 14984 ft 314 kts 166°
2026-04-29 05:28 40.77031 28.25619 14632 ft 312 kts 154°
2026-04-29 05:28 40.75100 28.26932 14273 ft 311 kts 153°
2026-04-29 05:29 40.73183 28.28237 13918 ft 309 kts 153°
2026-04-29 05:29 40.71280 28.29551 13562 ft 308 kts 149°
2026-04-29 05:29 40.69620 28.31304 13219 ft 306 kts 132°
2026-04-29 05:29 40.68432 28.33613 12853 ft 305 kts 115°
2026-04-29 05:30 40.67813 28.36291 12418 ft 307 kts 98°
2026-04-29 05:30 40.67709 28.39116 11942 ft 310 kts 91°
2026-04-29 05:30 40.67653 28.41938 11645 ft 306 kts 92°
2026-04-29 05:30 40.67591 28.44715 11103 ft 301 kts 92°
2026-04-29 05:31 40.67531 28.47425 10566 ft 296 kts 92°
2026-04-29 05:31 40.67470 28.50132 10152 ft 294 kts 92°
2026-04-29 05:31 40.67407 28.52842 9752 ft 296 kts 92°
2026-04-29 05:31 40.67342 28.55555 9348 ft 296 kts 92°
2026-04-29 05:32 40.67280 28.58251 9115 ft 291 kts 92°
2026-04-29 05:32 40.67173 28.60869 8983 ft 281 kts 100°
2026-04-29 05:32 40.66572 28.63220 8858 ft 270 kts 120°
2026-04-29 05:32 40.65439 28.65118 8814 ft 257 kts 139°
2026-04-29 05:33 40.64009 28.66391 8819 ft 241 kts 153°
2026-04-29 05:33 40.62556 28.67395 8823 ft 232 kts 153°
2026-04-29 05:33 40.61129 28.68384 8830 ft 231 kts 153°
2026-04-29 05:33 40.59713 28.69399 8829 ft 231 kts 147°
2026-04-29 05:34 40.58464 28.70735 8825 ft 232 kts 135°
2026-04-29 05:34 40.57322 28.72238 8829 ft 235 kts 136°
2026-04-29 05:34 40.56100 28.73828 8824 ft 254 kts 136°
2026-04-29 05:34 40.54820 28.75485 8832 ft 261 kts 136°
2026-04-29 05:35 40.53521 28.77180 8827 ft 264 kts 133°
2026-04-29 05:35 40.52467 28.79116 8828 ft 265 kts 118°
2026-04-29 05:35 40.51596 28.81259 8822 ft 265 kts 118°
2026-04-29 05:35 40.50722 28.83395 8822 ft 265 kts 118°
2026-04-29 05:36 40.49845 28.85532 8822 ft 265 kts 119°
2026-04-29 05:36 40.48995 28.87680 8821 ft 265 kts 113°
2026-04-29 05:36 40.48491 28.90017 8824 ft 266 kts 101°
2026-04-29 05:36 40.48132 28.92405 8819 ft 266 kts 102°
2026-04-29 05:37 40.47766 28.94790 8825 ft 266 kts 102°
2026-04-29 05:37 40.47404 28.97142 8825 ft 266 kts 102°
2026-04-29 05:37 40.47113 28.99541 8829 ft 266 kts 92°
2026-04-29 05:37 40.47224 29.01973 8830 ft 267 kts 84°
2026-04-29 05:38 40.47412 29.04400 8829 ft 267 kts 84°
2026-04-29 05:38 40.47845 29.06757 8822 ft 267 kts 63°
2026-04-29 05:38 40.48998 29.08635 8830 ft 266 kts 36°
2026-04-29 05:38 40.50673 29.09672 8527 ft 271 kts
2026-04-29 05:39 40.52530 29.09576 8137 ft 272 kts 345°
2026-04-29 05:39 40.54371 29.08956 7761 ft 274 kts 345°
2026-04-29 05:39 40.56222 29.08340 7396 ft 275 kts 345°
2026-04-29 05:39 40.58079 29.07727 7027 ft 275 kts 345°
2026-04-29 05:40 40.59934 29.07116 6706 ft 274 kts 345°
2026-04-29 05:40 40.61788 29.06503 6386 ft 274 kts 345°
2026-04-29 05:40 40.63629 29.05898 6056 ft 268 kts 345°
2026-04-29 05:40 40.65389 29.05322 5750 ft 259 kts 345°
2026-04-29 05:41 40.67131 29.04748 5448 ft 250 kts 345°
2026-04-29 05:41 40.68768 29.04210 5154 ft 241 kts 345°
2026-04-29 05:41 40.70372 29.03684 4866 ft 233 kts 345°
2026-04-29 05:41 40.71925 29.03174 4587 ft 229 kts 345°
2026-04-29 05:42 40.73466 29.02669 4322 ft 227 kts 345°
2026-04-29 05:42 40.74990 29.02190 4246 ft 221 kts 351°
2026-04-29 05:42 40.76482 29.02265 4157 ft 213 kts 15°
2026-04-29 05:42 40.77822 29.03087 3937 ft 214 kts 38°
2026-04-29 05:43 40.78834 29.04506 3587 ft 216 kts 53°
2026-04-29 05:43 40.79759 29.06083 3258 ft 217 kts 52°
2026-04-29 05:43 40.80691 29.07662 2933 ft 218 kts 52°
2026-04-29 05:43 40.81605 29.09217 2822 ft 210 kts 54°
2026-04-29 05:44 40.82386 29.10844 2825 ft 208 kts 62°
2026-04-29 05:44 40.83036 29.12493 2819 ft 198 kts 64°
2026-04-29 05:44 40.83439 29.13569 2823 ft 196 kts 64°
2026-04-29 05:44 40.84230 29.15700 2791 ft 194 kts 64°
2026-04-29 05:45 40.84822 29.17299 2582 ft 193 kts 64°
2026-04-29 05:45 40.85213 29.18354 2430 ft 192 kts 64°
2026-04-29 05:45 40.85790 29.19914 2118 ft 182 kts 64°
2026-04-29 05:45 40.86329 29.21370 1853 ft 173 kts 64°
2026-04-29 05:46 40.86846 29.22767 1584 ft 162 kts 64°
2026-04-29 05:46 40.87316 29.24040 1348 ft 149 kts 64°
2026-04-29 05:46 40.87761 29.25245 1113 ft 144 kts 64°
2026-04-29 05:46 40.88197 29.26426 900 ft 142 kts 64°
2026-04-29 05:47 40.88629 29.27595 680 ft 141 kts 64°
2026-04-29 05:47 40.89050 29.28762 469 ft 141 kts 65°
2026-04-29 05:47 40.89478 29.29906 309 ft 128 kts 64°
2026-04-29 05:47 40.89796 29.30767 309 ft 80 kts 62°
2026-04-29 05:48 40.89999 29.31310 308 ft 66 kts 64°
2026-04-29 05:48 40.90191 29.31833 311 ft 60 kts 64°
2026-04-29 05:48 40.90363 29.32304 310 ft 38 kts 65°
2026-04-29 05:48 40.90478 29.32477 311 ft 19 kts 349°
2026-04-29 05:49 40.90508 29.32456 312 ft 0 kts 333°
2026-04-29 05:49 40.90538 29.32439 312 ft 9 kts 340°
2026-04-29 05:49 40.90546 29.32435 312 ft 0 kts 339°
2026-04-29 05:49 40.90548 29.32434 312 ft 0 kts 340°
2026-04-29 05:50 40.90572 29.32409 313 ft 9 kts 306°
2026-04-29 05:50 40.90566 29.32286 312 ft 19 kts 249°
2026-04-29 05:50 40.90498 29.32097 311 ft 23 kts 244°
2026-04-29 05:50 40.90527 29.31961 312 ft 10 kts 355°
2026-04-29 05:51 40.90582 29.31935 312 ft 10 kts 336°
2026-04-29 05:51 40.90639 29.31872 312 ft 12 kts 328°
2026-04-29 05:51 40.90698 29.31835 312 ft 2 kts 336°